Location: Oberkirch
(48.5323°N, 8.0787°E)
Time: 02:52:04
(UTC+00:00)

AO-85 - Pass Details

Date: 22 March 2026
Orbit: 507 x 686 km, 64.8° (Epoch: 12 April)

Event Time Altitude Azimuth Distance (km) Brightness Sun altitude
Exits shadow 02:02:26 21° 48° (NE) 1,205 ? -31.4°
Drops below altitude 10° 02:03:48 10° 44° (NE) 1,743 ? -31.3°
Sets 02:05:57 0° 41° (NE) 2,624 ? -31.0°
